FW8095 Weather Reports


Display with metric or nautical units.
time (UTC)temp
F
wind
direction
speed
MPH
gust
MPH
rain 1hr
in
rain 24hr
in
rain mn
in
humidity
%
barometer
mb
20260905193046 98 238 0.0 5.0 0.00 0.00 0.00 56 1012.6
20260905191549 99 240 1.0 4.0 0.00 0.00 0.00 55 1013.0
20260905190100 99 141 1.0 4.0 0.00 0.00 0.00 47 1013.2
20260905184558 101 239 2.0 5.0 0.00 0.00 0.00 45 1013.3
20260905183047 100 112 1.0 4.0 0.00 0.00 0.00 46 1013.6
20260905181542 100 79 1.0 4.0 0.00 0.00 0.00 48 1013.8
20260905180055 98 108 0.0 6.0 0.00 0.00 0.00 48 1013.9
20260905174555 97 117 2.0 5.0 0.00 0.00 0.00 50 1014.4
20260905173114 97 116 1.0 4.0 0.00 0.00 0.00 51 1014.5
20260905171540 98 108 1.0 4.0 0.00 0.00 0.00 48 1014.8
20260905170045 98 91 0.0 3.0 0.00 0.00 0.00 52 1014.8
20260905164549 98 0 1.0 5.0 0.00 0.00 0.00 50 1015.1
20260905163050 99 120 1.0 4.0 0.00 0.00 0.00 50 1015.0
20260905161552 97 91 0.0 4.0 0.00 0.00 0.00 54 1015.2
20260905160047 96 148 2.0 5.0 0.00 0.00 0.00 54 1015.3
20260905154553 96 98 1.0 4.0 0.00 0.00 0.00 55 1015.3
20260905153046 95 142 2.0 4.0 0.00 0.00 0.00 58 1015.2
20260905151544 93 95 0.0 4.0 0.00 0.00 0.00 65 1015.0
20260905150043 92 128 1.0 4.0 0.00 0.00 0.00 65 1015.1
20260905144549 89 124 1.0 3.0 0.00 0.00 0.00 71 1015.3
20260905143046 88 96 1.0 3.0 0.00 0.00 0.00 72 1015.3
20260905141546 86 319 1.0 4.0 0.00 0.00 0.00 74 1015.4
20260905140050 85 123 1.0 4.0 0.00 0.00 0.00 77 1015.3
20260905134545 84 139 0.0 3.0 0.00 0.00 0.00 79 1015.5
20260905133042 82 128 0.0 3.0 0.00 0.00 0.00 82 1015.4
20260905131559 80 0 0.0 1.0 0.00 0.00 0.00 85 1015.3
20260905130045 79 129 0.0 1.0 0.00 0.00 0.00 87 1015.5
20260905124549 77 122 0.0 1.0 0.00 0.00 0.00 89 1015.6
20260905123053 76 158 0.0 0.0 0.00 0.00 0.00 91 1015.4
20260905121550 75 0 0.0 0.0 0.00 0.00 0.00 92 1015.6
20260905120050 75 0 0.0 1.0 0.00 0.00 0.00 93 1015.3
20260905114545 74 0 0.0 0.0 0.00 0.00 0.00 94 1015.2
20260905113041 74 0 0.0 0.0 0.00 0.00 0.00 94 1015.2
20260905111553 74 0 0.0 0.0 0.00 0.00 0.00 93 1015.1
20260905104540 74 0 0.0 0.0 0.00 0.00 0.00 93 1015.0
20260905103048 74 0 0.0 0.0 0.00 0.00 0.00 93 1015.0
20260905101552 74 0 0.0 0.0 0.00 0.00 0.00 93 1015.1
20260905100044 74 0 0.0 0.0 0.00 0.00 0.00 93 1015.0
20260905094543 74 0 0.0 0.0 0.00 0.00 0.00 92 1014.7
20260905093047 74 0 0.0 0.0 0.00 0.00 0.00 92 1014.9
20260905091547 74 0 0.0 0.0 0.00 0.00 0.00 91 1014.9
20260905090041 74 0 0.0 0.0 0.00 0.00 0.00 91 1014.9
20260905084601 75 0 0.0 0.0 0.00 0.00 0.00 91 1014.7
20260905083045 75 0 0.0 0.0 0.00 0.00 0.00 90 1014.6
20260905081544 75 0 0.0 0.0 0.00 0.00 0.00 89 1014.6
20260905080041 75 0 0.0 0.0 0.00 0.00 0.00 89 1014.5
20260905074547 76 0 0.0 0.0 0.00 0.00 0.00 87 1014.4
20260905073047 76 0 0.0 0.0 0.00 0.00 0.00 87 1014.4
20260905071544 77 0 0.0 0.0 0.00 0.00 0.00 86 1014.3
20260905070046 77 0 0.0 0.0 0.00 0.00 0.00 85 1014.3
20260905064548 78 0 0.0 0.0 0.00 0.00 0.00 84 1014.3
20260905063051 78 0 0.0 0.0 0.00 0.00 0.00 84 1014.4
20260905061547 78 0 0.0 0.0 0.00 0.00 0.00 83 1014.5
20260905060047 78 0 0.0 0.0 0.00 0.00 0.00 83 1014.6
20260905054541 78 0 0.0 0.0 0.00 0.00 0.00 81 1014.6
20260905053040 79 0 0.0 0.0 0.00 0.00 0.00 81 1014.6
20260905051540 79 0 0.0 0.0 0.00 0.00 0.00 80 1014.6
20260905050046 80 0 0.0 0.0 0.00 0.00 0.00 79 1014.6
20260905044541 80 0 0.0 0.0 0.00 0.00 0.00 78 1014.7
20260905043048 81 0 0.0 0.0 0.00 0.00 0.00 77 1014.8
20260905040051 81 0 0.0 0.0 0.00 0.00 0.00 76 1014.7
20260905034549 82 0 0.0 0.0 0.00 0.00 0.00 75 1014.7
20260905033038 82 0 0.0 0.0 0.00 0.00 0.00 75 1014.9
20260905031542 83 0 0.0 0.0 0.00 0.00 0.00 73 1015.0
20260905030040 83 0 0.0 0.0 0.00 0.00 0.00 72 1015.0
20260905024613 84 0 0.0 0.0 0.00 0.00 0.00 70 1015.2
20260905023046 84 0 0.0 0.0 0.00 0.00 0.00 69 1015.2
20260905021543 85 0 0.0 0.0 0.00 0.00 0.00 69 1015.1
20260905020051 85 0 0.0 0.0 0.00 0.00 0.00 68 1015.0
20260905014546 85 0 0.0 0.0 0.00 0.00 0.00 69 1014.9
20260905013041 85 0 0.0 0.0 0.00 0.00 0.00 68 1014.9
20260905011556 86 0 0.0 0.0 0.00 0.00 0.00 67 1014.7
20260905010046 87 0 0.0 0.0 0.00 0.00 0.00 65 1014.7
20260905004552 87 0 0.0 0.0 0.00 0.00 0.00 63 1014.6
20260905003042 89 0 0.0 0.0 0.00 0.00 0.00 61 1014.7
20260905001547 90 0 0.0 0.0 0.00 0.00 0.00 59 1014.6
20260905000047 91 56 0.0 1.0 0.00 0.00 0.00 58 1014.8
20260904234551 92 0 0.0 2.0 0.00 0.00 0.00 57 1014.8
20260904233126 92 0 0.0 1.0 0.00 0.00 0.00 56 1014.6
20260904231540 93 203 0.0 3.0 0.00 0.00 0.00 55 1014.5
20260904230039 93 0 0.0 2.0 0.00 0.00 0.00 56 1014.2
20260904224548 93 0 0.0 4.0 0.00 0.00 0.00 54 1014.2
20260904223044 94 108 1.0 3.0 0.00 0.00 0.00 53 1014.1
20260904221545 94 0 0.0 3.0 0.00 0.00 0.00 53 1014.0
20260904220043 94 91 0.0 3.0 0.00 0.00 0.00 54 1013.9
20260904214547 94 94 1.0 5.0 0.00 0.00 0.00 52 1014.0
20260904213043 94 98 1.0 5.0 0.00 0.00 0.00 54 1014.1
20260904211547 95 121 1.0 5.0 0.00 0.00 0.00 52 1014.0
20260904210048 95 246 1.0 4.0 0.00 0.00 0.00 51 1014.0
20260904204542 95 100 1.0 6.0 0.00 0.00 0.00 52 1014.2
20260904203042 96 233 0.0 4.0 0.00 0.00 0.00 52 1014.3
20260904201547 96 85 0.0 5.0 0.00 0.00 0.00 52 1014.6
20260904200052 97 43 1.0 6.0 0.00 0.00 0.00 52 1015.0
20260904194543 97 288 2.0 4.0 0.00 0.00 0.00 49 1015.1